EW9532 Weather Reports


time (UTC)temp
C
wind
direction
speed
KPH
gust
KPH
rain 1hr
cm
rain 24hr
cm
rain mn
cm
humidity
%
barometer
mb
20260905181557 36 27 6.4 17.7 0.00 0.00 0.00 51 1013.0
20260905181410 37 315 6.4 17.7 0.00 0.00 0.00 51 1012.8
20260905180905 36 63 3.2 17.7 0.00 0.00 0.00 52 1012.9
20260905180405 36 252 6.4 16.1 0.00 0.00 0.00 52 1013.0
20260905180059 36 233 4.8 16.1 0.00 0.00 0.00 52 1013.3
20260905175904 36 307 8.0 16.1 0.00 0.00 0.00 52 1013.2
20260905175404 36 359 6.4 12.9 0.00 0.00 0.00 51 1013.2
20260905174904 36 178 4.8 14.5 0.00 0.00 0.00 55 1013.2
20260905174604 36 274 4.8 14.5 0.00 0.00 0.00 54 1013.5
20260905174403 36 160 4.8 14.5 0.00 0.00 0.00 54 1013.2
20260905173903 36 8 6.4 14.5 0.00 0.00 0.00 55 1013.4
20260905173403 36 25 6.4 12.9 0.00 0.00 0.00 56 1013.5
20260905173103 35 245 4.8 16.1 0.00 0.00 0.00 56 1013.8
20260905172902 35 252 4.8 14.5 0.00 0.00 0.00 55 1013.5
20260905172402 35 120 3.2 14.5 0.00 0.00 0.00 57 1013.7
20260905171902 35 99 4.8 12.9 0.00 0.00 0.00 57 1013.7
20260905171607 35 53 4.8 17.7 0.00 0.00 0.00 56 1014.0
20260905171402 36 89 4.8 12.9 0.00 0.00 0.00 56 1013.7
20260905171124 35 80 4.8 12.9 0.00 0.00 0.00 58 1013.8
20260905170623 35 285 8.0 12.9 0.00 0.00 0.00 56 1013.8
20260905170104 35 314 4.8 17.7 0.00 0.00 0.00 56 1014.0
20260905165902 35 265 6.4 17.7 0.00 0.00 0.00 58 1013.9
20260905165402 35 7 6.4 17.7 0.00 0.00 0.00 59 1014.0
20260905164904 35 358 6.4 14.5 0.00 0.00 0.00 59 1013.9
20260905164558 35 25 3.2 17.7 0.00 0.00 0.00 59 1014.2
20260905164404 35 102 6.4 17.7 0.00 0.00 0.00 60 1014.1
20260905163904 35 204 6.4 17.7 0.00 0.00 0.00 59 1014.0
20260905163602 35 340 4.8 12.9 0.00 0.00 0.00 59 1014.1
20260905163102 35 20 3.2 16.1 0.00 0.00 0.00 60 1014.3
20260905162832 34 229 4.8 17.7 0.00 0.00 0.00 60 1014.1
20260905162331 34 242 4.8 17.7 0.00 0.00 0.00 63 1014.1
20260905161831 33 307 6.4 12.9 0.00 0.00 0.00 62 1014.2
20260905161606 33 202 4.8 12.9 0.00 0.00 0.00 63 1014.4
20260905161329 33 177 4.8 14.5 0.00 0.00 0.00 64 1014.3
20260905160829 33 274 6.4 14.5 0.00 0.00 0.00 63 1014.3
20260905160329 33 60 4.8 12.9 0.00 0.00 0.00 65 1014.3
20260905160058 33 51 4.8 12.9 0.00 0.00 0.00 64 1014.6
20260905155829 33 278 4.8 11.3 0.00 0.00 0.00 66 1014.2
20260905155328 33 354 4.8 12.9 0.00 0.00 0.00 66 1014.4
20260905154829 33 70 4.8 12.9 0.00 0.00 0.00 66 1014.3
20260905154602 33 3 4.8 12.9 0.00 0.00 0.00 67 1014.5
20260905154329 33 202 6.4 12.9 0.00 0.00 0.00 67 1014.3
20260905153829 32 345 4.8 11.3 0.00 0.00 0.00 69 1014.3
20260905153329 32 347 4.8 16.1 0.00 0.00 0.00 70 1014.5
20260905153100 32 294 3.2 16.1 0.00 0.00 0.00 70 1014.7
20260905152829 32 4 6.4 16.1 0.00 0.00 0.00 71 1014.5
20260905152328 31 210 6.4 9.7 0.00 0.00 0.00 71 1014.6
20260905151831 31 146 3.2 9.7 0.00 0.00 0.00 72 1014.7
20260905151602 31 217 3.2 16.1 0.00 0.00 0.00 72 1014.9
20260905151330 31 18 3.2 16.1 0.00 0.00 0.00 73 1014.6
20260905150830 31 13 6.4 16.1 0.00 0.00 0.00 72 1014.6
20260905150331 31 271 4.8 14.5 0.00 0.00 0.00 73 1014.7
20260905150059 31 41 6.4 16.1 0.00 0.00 0.00 74 1014.8
20260905145830 31 316 6.4 14.5 0.00 0.00 0.00 75 1014.5
20260905145330 31 28 6.4 14.5 0.00 0.00 0.00 75 1014.5
20260905145054 31 291 3.2 11.3 0.00 0.00 0.00 77 1014.5
20260905144555 30 141 4.8 12.9 0.00 0.00 0.00 77 1014.6
20260905144329 30 155 4.8 11.3 0.00 0.00 0.00 78 1014.5
20260905143829 30 100 6.4 12.9 0.00 0.00 0.00 78 1014.5
20260905143328 30 62 4.8 12.9 0.00 0.00 0.00 79 1014.4
20260905143105 30 189 4.8 14.5 0.00 0.00 0.00 79 1014.6
20260905142829 30 64 4.8 12.9 0.00 0.00 0.00 79 1014.4
20260905142328 30 340 4.8 14.5 0.00 0.00 0.00 79 1014.3
20260905141830 30 259 6.4 14.5 0.00 0.00 0.00 81 1014.2
20260905141603 29 198 3.2 16.1 0.00 0.00 0.00 81 1014.5
20260905141331 29 105 4.8 12.9 0.00 0.00 0.00 81 1014.2
20260905140829 29 155 4.8 11.3 0.00 0.00 0.00 81 1014.3
20260905140329 29 299 4.8 12.9 0.00 0.00 0.00 82 1014.3
20260905140059 29 312 3.2 14.5 0.00 0.00 0.00 82 1014.4
20260905135829 29 243 6.4 14.5 0.00 0.00 0.00 83 1014.1
20260905135329 29 7 4.8 14.5 0.00 0.00 0.00 83 1014.2
20260905134831 29 271 4.8 14.5 0.00 0.00 0.00 83 1014.1
20260905134557 28 1 3.2 16.1 0.00 0.00 0.00 83 1014.2
20260905134331 28 172 6.4 14.5 0.00 0.00 0.00 83 1013.9
20260905134057 28 311 3.2 9.7 0.00 0.00 0.00 84 1013.9
20260905133329 28 302 3.2 9.7 0.00 0.00 0.00 84 1013.9
20260905133102 28 294 3.2 9.7 0.00 0.00 0.00 84 1014.0
20260905132828 28 142 1.6 9.7 0.00 0.00 0.00 85 1013.8
20260905132328 28 348 1.6 6.4 0.00 0.00 0.00 85 1013.7
20260905132058 28 15 3.2 8.0 0.00 0.00 0.00 85 1013.7
20260905131603 28 33 1.6 8.0 0.00 0.00 0.00 85 1013.8
20260905131552 28 333 3.2 8.0 0.00 0.00 0.00 85 1013.6
20260905131036 28 221 3.2 6.4 0.00 0.00 0.00 85 1013.7
20260905130310 28 209 1.6 6.4 0.00 0.00 0.00 85 1013.4
20260905130057 28 184 1.6 8.0 0.00 0.00 0.00 85 1013.7
20260905130043 28 333 1.6 8.0 0.00 0.00 0.00 86 1013.5
20260905125306 28 216 1.6 8.0 0.00 0.00 0.00 86 1013.3
20260905124808 27 2 1.6 6.4 0.00 0.00 0.00 87 1013.4
20260905124604 27 107 1.6 6.4 0.00 0.00 0.00 87 1013.6
20260905124532 27 290 3.2 6.4 0.00 0.00 0.00 88 1013.2
20260905123806 27 94 1.6 6.4 0.00 0.00 0.00 88 1013.2
20260905123304 27 48 1.6 6.4 0.00 0.00 0.00 88 1013.2
20260905123108 27 146 0.0 6.4 0.00 0.00 0.00 87 1013.3
20260905123022 27 338 1.6 6.4 0.00 0.00 0.00 88 1013.1
20260905122306 27 103 1.6 9.7 0.00 0.00 0.00 88 1013.0
20260905121801 27 343 1.6 9.7 0.00 0.00 0.00 88 1013.0
20260905121603 27 94 1.6 9.7 0.00 0.00 0.00 87 1013.0
20260905121303 27 190 1.6 4.8 0.00 0.00 0.00 88 1012.9
20260905120815 27 203 3.2 4.8 0.00 0.00 0.00 88 1012.9
20260905120302 27 228 0.0 4.8 0.00 0.00 0.00 88 1013.0
20260905120104 27 296 0.0 6.4 0.00 0.00 0.00 87 1013.2
20260905115802 27 247 1.6 6.4 0.00 0.00 0.00 88 1012.9
20260905115523 27 212 1.6 6.4 0.00 0.00 0.00 87 1012.8
20260905114802 27 16 1.6 4.8 0.00 0.00 0.00 87 1012.7
20260905114611 27 103 1.6 6.4 0.00 0.00 0.00 87 1013.0
20260905114302 27 33 3.2 4.8 0.00 0.00 0.00 87 1012.8
20260905114023 27 257 1.6 3.2 0.00 0.00 0.00 87 1012.8
20260905113302 27 80 1.6 3.2 0.00 0.00 0.00 87 1012.8
20260905113109 27 137 0.0 4.8 0.00 0.00 0.00 87 1013.0
20260905112802 27 185 0.0 4.8 0.00 0.00 0.00 87 1012.8
20260905112305 27 280 1.6 8.0 0.00 0.00 0.00 87 1012.8
20260905111802 27 25 3.2 8.0 0.00 0.00 0.00 87 1012.8
20260905111615 27 0 1.6 8.0 0.00 0.00 0.00 87 1013.0
20260905111302 27 259 1.6 8.0 0.00 0.00 0.00 87 1012.7
20260905110815 27 313 1.6 8.0 0.00 0.00 0.00 87 1012.7
20260905110302 27 205 1.6 8.0 0.00 0.00 0.00 87 1012.6
20260905110104 27 243 0.0 6.4 0.00 0.00 0.00 87 1012.8
20260905105802 27 224 1.6 8.0 0.00 0.00 0.00 87 1012.6
20260905105300 27 34 1.6 6.4 0.00 0.00 0.00 87 1012.8
20260905105032 27 96 1.6 8.0 0.00 0.00 0.00 87 1012.7
20260905104558 27 307 0.0 8.0 0.00 0.00 0.00 86 1013.0
20260905104301 27 320 3.2 8.0 0.00 0.00 0.00 87 1012.7
20260905103801 27 190 3.2 6.4 0.00 0.00 0.00 87 1012.8
20260905103301 27 118 1.6 4.8 0.00 0.00 0.00 87 1012.8
20260905103052 27 114 0.0 9.7 0.00 0.00 0.00 86 1013.1
20260905102801 27 288 1.6 9.7 0.00 0.00 0.00 87 1012.9
20260905102300 27 311 3.2 9.7 0.00 0.00 0.00 87 1012.8
20260905101801 28 139 1.6 6.4 0.00 0.00 0.00 87 1012.9
20260905101552 27 11 1.6 6.4 0.00 0.00 0.00 86 1013.1
20260905101303 28 281 1.6 6.4 0.00 0.00 0.00 87 1012.8
20260905100802 28 227 3.2 6.4 0.00 0.00 0.00 87 1012.8
20260905100302 28 342 1.6 6.4 0.00 0.00 0.00 86 1012.8
20260905100107 27 313 1.6 6.4 0.00 0.00 0.00 86 1013.1
20260905095802 28 240 1.6 6.4 0.00 0.00 0.00 86 1012.9
20260905095300 28 244 3.2 8.0 0.00 0.00 0.00 86 1012.9
20260905094801 28 154 3.2 8.0 0.00 0.00 0.00 86 1012.9
20260905094605 27 202 1.6 6.4 0.00 0.00 0.00 86 1013.1
20260905094301 28 169 3.2 8.0 0.00 0.00 0.00 86 1012.9
20260905093801 28 20 3.2 6.4 0.00 0.00 0.00 86 1012.9
20260905093301 28 23 3.2 8.0 0.00 0.00 0.00 86 1013.0
20260905093055 28 185 3.2 11.3 0.00 0.00 0.00 85 1013.1
20260905093034 28 118 3.2 9.7 0.00 0.00 0.00 86 1012.9
20260905092748 28 83 3.2 9.7 0.00 0.00 0.00 86 1012.9
20260905091801 28 228 3.2 9.7 0.00 0.00 0.00 86 1013.0
20260905091609 28 60 3.2 8.0 0.00 0.00 0.00 85 1013.2
20260905091302 28 358 1.6 9.7 0.00 0.00 0.00 85 1012.9
20260905090802 28 203 4.8 6.4 0.00 0.00 0.00 85 1013.0
20260905090301 28 253 1.6 11.3 0.00 0.00 0.00 85 1013.1
20260905085801 28 187 3.2 11.3 0.00 0.00 0.00 85 1013.1
20260905085305 28 296 1.6 6.4 0.00 0.00 0.00 85 1013.0
20260905084800 28 117 4.8 8.0 0.00 0.00 0.00 85 1013.1
20260905084611 28 106 3.2 9.7 0.00 0.00 0.00 84 1013.2
20260905084525 28 243 3.2 8.0 0.00 0.00 0.00 85 1013.0
20260905083802 28 272 1.6 8.0 0.00 0.00 0.00 85 1013.0
20260905083302 28 341 1.6 11.3 0.00 0.00 0.00 85 1013.1
20260905083101 28 286 1.6 11.3 0.00 0.00 0.00 84 1013.4
20260905082802 28 295 4.8 11.3 0.00 0.00 0.00 85 1013.2
20260905082300 28 301 3.2 9.7 0.00 0.00 0.00 84 1013.1
20260905081801 28 348 3.2 9.7 0.00 0.00 0.00 84 1013.2
20260905081616 28 314 1.6 11.3 0.00 0.00 0.00 84 1013.4
20260905081521 28 272 3.2 12.9 0.00 0.00 0.00 84 1013.2
20260905080801 28 163 4.8 12.9 0.00 0.00 0.00 84 1013.2
20260905080527 28 46 4.8 8.0 0.00 0.00 0.00 84 1013.1
20260905080057 28 333 1.6 8.0 0.00 0.00 0.00 84 1013.3
20260905075801 28 51 1.6 9.7 0.00 0.00 0.00 84 1013.2
20260905075301 28 331 3.2 11.3 0.00 0.00 0.00 84 1013.2
20260905074801 28 272 3.2 11.3 0.00 0.00 0.00 84 1013.3
20260905074603 28 206 3.2 11.3 0.00 0.00 0.00 83 1013.6
20260905074301 28 185 3.2 11.3 0.00 0.00 0.00 84 1013.3
20260905074021 28 195 1.6 9.7 0.00 0.00 0.00 84 1013.4
20260905073425 28 12 3.2 9.7 0.00 0.00 0.00 83 1013.8
20260905073302 28 224 3.2 9.7 0.00 0.00 0.00 84 1013.5
20260905072801 28 176 3.2 8.0 0.00 0.00 0.00 84 1013.4
20260905072301 28 234 3.2 8.0 0.00 0.00 0.00 84 1013.6
20260905071800 28 141 3.2 8.0 0.00 0.00 0.00 84 1013.8
20260905071719 28 269 3.2 8.0 0.00 0.00 0.00 84 1013.9
20260905071303 28 13 1.6 8.0 0.00 0.00 0.00 84 1013.7
20260905070751 28 157 0.0 12.9 0.00 0.00 0.00 84 1013.8
20260905070246 29 53 4.8 12.9 0.00 0.00 0.00 84 1013.9
20260905065745 29 263 3.2 9.7 0.00 0.00 0.00 84 1013.9
20260905065239 29 207 3.2 9.7 0.00 0.00 0.00 84 1013.7
20260905064735 29 234 3.2 9.7 0.00 0.00 0.00 84 1013.8
20260905064603 28 105 3.2 8.0 0.00 0.00 0.00 83 1014.0
20260905064234 29 184 1.6 9.7 0.00 0.00 0.00 83 1013.7
20260905063733 29 199 3.2 11.3 0.00 0.00 0.00 83 1013.7
20260905063229 29 84 3.2 11.3 0.00 0.00 0.00 83 1013.8
20260905063114 28 301 3.2 11.3 0.00 0.00 0.00 83 1013.9
20260905062734 29 155 3.2 9.7 0.00 0.00 0.00 83 1013.6
20260905062234 29 233 3.2 14.5 0.00 0.00 0.00 83 1013.6
20260905061733 29 320 6.4 14.5 0.00 0.00 0.00 83 1013.7
20260905061611 28 37 1.6 12.9 0.00 0.00 0.00 82 1013.8
20260905061451 29 92 6.4 12.9 0.00 0.00 0.00 82 1013.7
20260905060731 29 358 3.2 11.3 0.00 0.00 0.00 82 1013.8
20260905060231 29 169 4.8 11.3 0.00 0.00 0.00 82 1013.6
20260905060053 28 9 4.8 11.3 0.00 0.00 0.00 81 1013.9
20260905055730 29 357 3.2 11.3 0.00 0.00 0.00 82 1013.6
20260905055230 29 327 3.2 11.3 0.00 0.00 0.00 82 1013.5
20260905054728 29 191 3.2 11.3 0.00 0.00 0.00 82 1013.5
20260905054603 28 243 3.2 9.7 0.00 0.00 0.00 81 1013.7
20260905054230 29 184 3.2 11.3 0.00 0.00 0.00 81 1013.5
20260905053730 29 164 3.2 9.7 0.00 0.00 0.00 81 1013.6
20260905053451 29 239 4.8 14.5 0.00 0.00 0.00 81 1013.6
20260905053059 29 181 1.6 17.7 0.00 0.00 0.00 80 1013.8
20260905052712 29 330 4.8 14.5 0.00 0.00 0.00 81 1013.6
20260905052209 29 46 4.8 14.5 0.00 0.00 0.00 81 1013.7
20260905051706 29 165 4.8 16.1 0.00 0.00 0.00 81 1013.6
20260905051556 29 44 4.8 14.5 0.00 0.00 0.00 80 1013.9
20260905051203 29 106 4.8 16.1 0.00 0.00 0.00 81 1013.7
20260905050703 29 307 3.2 14.5 0.00 0.00 0.00 80 1013.7
20260905050148 29 183 6.4 16.1 0.00 0.00 0.00 80 1013.7
20260905050109 29 104 4.8 16.1 0.00 0.00 0.00 80 1013.9
20260905045642 29 73 3.2 16.1 0.00 0.00 0.00 80 1013.9
20260905045138 29 210 3.2 12.9 0.00 0.00 0.00 80 1013.8
20260905044634 30 266 3.2 11.3 0.00 0.00 0.00 80 1013.8
20260905044553 29 104 1.6 9.7 0.00 0.00 0.00 79 1013.9
20260905044357 30 30 4.8 8.0 0.00 0.00 0.00 79 1013.9
20260905043631 30 40 3.2 12.9 0.00 0.00 0.00 79 1013.9
20260905043129 30 230 4.8 12.9 0.00 0.00 0.00 79 1014.0
20260905043118 29 81 3.2 12.9 0.00 0.00 0.00 78 1014.2
20260905042630 30 108 4.8 14.5 0.00 0.00 0.00 78 1013.7
20260905042131 30 326 6.4 14.5 0.00 0.00 0.00 78 1013.7
20260905041629 30 259 4.8 12.9 0.00 0.00 0.00 78 1013.8
20260905041604 30 319 4.8 12.9 0.00 0.00 0.00 77 1014.1
20260905041356 30 301 6.4 12.9 0.00 0.00 0.00 78 1013.9
20260905040858 30 253 4.8 12.9 0.00 0.00 0.00 78 1014.0
20260905040129 30 229 4.8 11.3 0.00 0.00 0.00 77 1014.0
20260905040121 30 333 4.8 12.9 0.00 0.00 0.00 77 1014.2
20260905035629 30 68 3.2 11.3 0.00 0.00 0.00 77 1013.9
20260905035128 30 290 6.4 11.3 0.00 0.00 0.00 77 1013.8
20260905034628 30 222 6.4 11.3 0.00 0.00 0.00 77 1013.9
20260905034600 30 296 6.4 11.3 0.00 0.00 0.00 76 1014.2
20260905034352 30 20 4.8 11.3 0.00 0.00 0.00 77 1014.1
20260905033621 30 200 3.2 12.9 0.00 0.00 0.00 76 1014.0
20260905033117 30 110 4.8 12.9 0.00 0.00 0.00 76 1013.8
20260905033103 30 66 3.2 12.9 0.00 0.00 0.00 75 1014.0
20260905032838 30 231 6.4 14.5 0.00 0.00 0.00 76 1013.8
20260905032108 30 10 6.4 14.5 0.00 0.00 0.00 75 1013.9
20260905031603 30 303 4.8 9.7 0.00 0.00 0.00 75 1013.9
20260905031600 30 260 3.2 12.9 0.00 0.00 0.00 74 1014.1
20260905031103 30 125 3.2 12.9 0.00 0.00 0.00 74 1013.8
20260905030824 30 220 4.8 12.9 0.00 0.00 0.00 74 1013.7
20260905030101 30 197 4.8 12.9 0.00 0.00 0.00 73 1013.8
20260905025603 30 286 4.8 12.9 0.00 0.00 0.00 73 1013.7
20260905025102 30 346 4.8 14.5 0.00 0.00 0.00 73 1013.7
20260905024602 30 356 4.8 16.1 0.00 0.00 0.00 72 1013.8
20260905024334 30 6 6.4 14.5 0.00 0.00 0.00 72 1013.5
20260905023602 31 33 4.8 11.3 0.00 0.00 0.00 72 1013.5
20260905023101 30 231 3.2 12.9 0.00 0.00 0.00 71 1013.8
20260905022600 31 328 3.2 16.1 0.00 0.00 0.00 71 1013.5
20260905022100 31 196 6.4 16.1 0.00 0.00 0.00 71 1013.3
20260905021601 31 345 6.4 16.1 0.00 0.00 0.00 71 1013.1
20260905021552 31 56 6.4 16.1 0.00 0.00 0.00 70 1013.2
20260905021100 31 37 6.4 14.5 0.00 0.00 0.00 71 1012.9
20260905020616 31 345 4.8 14.5 0.00 0.00 0.00 71 1012.7
20260905020104 31 56 3.2 14.5 0.00 0.00 0.00 70 1012.6
20260905020058 31 177 4.8 20.9 0.00 0.00 0.00 70 1012.8
20260905015602 31 117 4.8 14.5 0.00 0.00 0.00 70 1012.5
20260905015102 31 301 6.4 17.7 0.00 0.00 0.00 69 1012.4
20260905014600 31 255 6.4 17.7 0.00 0.00 0.00 69 1012.4
20260905014557 31 271 6.4 19.3 0.00 0.00 0.00 68 1012.5
20260905014323 31 307 8.0 14.5 0.00 0.00 0.00 68 1012.6
20260905013601 32 212 6.4 12.9 0.00 0.00 0.00 67 1012.6
20260905013103 31 209 6.4 17.7 0.00 0.00 0.00 66 1012.6
20260905013101 32 276 6.4 19.3 0.00 0.00 0.00 66 1012.5
20260905013051 32 124 9.7 19.3 0.00 0.00 0.00 66 1012.2
20260905012101 32 134 3.2 12.9 0.00 0.00 0.00 66 1012.1
20260905011600 32 347 6.4 17.7 0.00 0.00 0.00 65 1012.1
20260905011557 32 76 6.4 16.1 0.00 0.00 0.00 65 1012.3
20260905011100 32 206 8.0 20.9 0.00 0.00 0.00 65 1012.0
20260905010603 32 171 11.3 20.9 0.00 0.00 0.00 65 1011.8
20260905010339 32 67 4.8 16.1 0.00 0.00 0.00 64 1011.7
20260905010108 32 273 4.8 14.5 0.00 0.00 0.00 64 1011.9
20260905005615 32 126 6.4 16.1 0.00 0.00 0.00 64 1011.6
20260905005103 32 61 4.8 14.5 0.00 0.00 0.00 63 1011.8
20260905004613 32 291 4.8 16.1 0.00 0.00 0.00 63 1012.1
20260905004602 33 205 6.4 17.7 0.00 0.00 0.00 63 1011.8
20260905004101 33 226 9.7 17.7 0.00 0.00 0.00 62 1011.8
20260905003826 33 179 8.0 17.7 0.00 0.00 0.00 62 1011.7
20260905003102 33 70 8.0 17.7 0.00 0.00 0.00 62 1011.6
20260905002602 33 181 6.4 14.5 0.00 0.00 0.00 60 1011.6
20260905002102 33 30 6.4 17.7 0.00 0.00 0.00 60 1011.6
20260905001825 34 270 6.4 17.7 0.00 0.00 0.00 59 1011.6
20260905001558 33 272 8.0 24.1 0.00 0.00 0.00 59 1011.8
20260905001336 34 287 8.0 22.5 0.00 0.00 0.00 58 1011.3
20260905001320 34 167 9.7 22.5 0.00 0.00 0.00 58 1011.7
20260905000550 35 217 8.0 14.5 0.00 0.00 0.00 58 1011.3
20260905000125 34 281 6.4 17.7 0.00 0.00 0.00 57 1011.6
20260904235827 35 41 6.4 19.3 0.00 0.00 0.00 57 1011.2
20260904235102 35 268 8.0 19.3 0.00 0.00 0.00 57 1011.1
20260904234601 35 162 8.0 19.3 0.00 0.00 0.00 55 1011.1
20260904234101 35 203 8.0 16.1 0.00 0.00 0.00 54 1011.0
20260904233602 35 49 9.7 19.3 0.00 0.00 0.00 53 1010.9
20260904233108 35 212 9.7 22.5 0.00 0.00 0.00 52 1011.2
20260904233101 35 64 9.7 24.1 0.00 0.00 0.00 52 1010.9
20260904232601 36 172 8.0 24.1 0.00 0.00 0.00 52 1010.8
20260904232101 36 193 8.0 20.9 0.00 0.00 0.00 51 1010.7
20260904232057 36 162 9.7 20.9 0.00 0.00 0.00 50 1010.8
20260904231600 36 218 8.0 19.3 0.00 0.00 0.00 49 1011.1
20260904231100 37 278 6.4 12.9 0.00 0.00 0.00 50 1010.7
20260904230827 36 337 6.4 17.7 0.00 0.00 0.00 50 1010.7
20260904230056 36 226 8.0 19.3 0.00 0.00 0.00 49 1011.1
20260904225601 37 192 8.0 16.1 0.00 0.00 0.00 49 1010.8
20260904225101 36 109 9.7 16.1 0.00 0.00 0.00 50 1010.8
20260904224604 37 354 6.4 16.1 0.00 0.00 0.00 48 1011.0
20260904224601 37 279 6.4 14.5 0.00 0.00 0.00 49 1010.8
20260904224327 37 261 8.0 19.3 0.00 0.00 0.00 49 1010.7
20260904223615 37 358 6.4 20.9 0.00 0.00 0.00 50 1010.7
20260904223338 36 323 8.0 20.9 0.00 0.00 0.00 49 1010.6
20260904223106 36 44 6.4 20.9 0.00 0.00 0.00 49 1010.9
20260904222602 37 15 6.4 19.3 0.00 0.00 0.00 49 1010.6
20260904222102 37 272 9.7 20.9 0.00 0.00 0.00 49 1010.7
20260904221602 37 227 8.0 20.9 0.00 0.00 0.00 48 1010.7
20260904221555 37 143 8.0 22.5 0.00 0.00 0.00 48 1010.9
20260904221057 37 225 11.3 22.5 0.00 0.00 0.00 47 1010.6
20260904220553 38 139 9.7 22.5 0.00 0.00 0.00 45 1010.6
20260904220116 38 75 3.2 12.9 0.00 0.00 0.00 39 1010.8
20260904220053 38 103 4.8 12.9 0.00 0.00 0.00 41 1010.5
20260904215547 38 258 6.4 19.3 0.00 0.00 0.00 39 1010.4
20260904215044 38 220 4.8 19.3 0.00 0.00 0.00 40 1010.5
20260904214809 38 63 3.2 16.1 0.00 0.00 0.00 38 1010.5
20260904214600 38 7 3.2 14.5 0.00 0.00 0.00 38 1010.8
20260904214035 38 343 6.4 17.7 0.00 0.00 0.00 38 1010.6
20260904213529 38 150 4.8 17.7 0.00 0.00 0.00 39 1010.5
20260904213055 38 343 3.2 14.5 0.00 0.00 0.00 38 1010.8
20260904213029 38 22 3.2 14.5 0.00 0.00 0.00 38 1010.5
20260904212528 38 247 9.7 14.5 0.00 0.00 0.00 37 1010.7
20260904212029 38 176 4.8 11.3 0.00 0.00 0.00 38 1010.7
20260904211608 38 243 4.8 12.9 0.00 0.00 0.00 38 1011.1
20260904211527 38 338 4.8 11.3 0.00 0.00 0.00 38 1010.7
20260904211022 38 211 6.4 12.9 0.00 0.00 0.00 38 1010.7
20260904210518 38 212 4.8 12.9 0.00 0.00 0.00 40 1010.7
20260904210104 38 228 3.2 16.1 0.00 0.00 0.00 40 1011.1
20260904210017 38 33 4.8 17.7 0.00 0.00 0.00 41 1010.9
20260904205517 38 176 9.7 17.7 0.00 0.00 0.00 42 1010.8
20260904205012 38 340 8.0 14.5 0.00 0.00 0.00 42 1011.0
20260904204555 37 108 9.7 17.7 0.00 0.00 0.00 42 1011.1
20260904204508 38 103 9.7 14.5 0.00 0.00 0.00 43 1010.9
20260904204005 38 241 8.0 12.9 0.00 0.00 0.00 44 1010.9
20260904203949 38 11 6.4 16.1 0.00 0.00 0.00 43 1010.9
20260904203055 38 176 9.7 16.1 0.00 0.00 0.00 43 1011.2
20260904203002 38 252 9.7 16.1 0.00 0.00 0.00 43 1010.9
20260904202502 38 338 6.4 12.9 0.00 0.00 0.00 44 1011.0
20260904202002 39 128 6.4 12.9 0.00 0.00 0.00 43 1011.1
20260904201551 38 188 3.2 12.9 0.00 0.00 0.00 45 1011.4
20260904201502 38 211 3.2 12.9 0.00 0.00 0.00 45 1011.0
20260904201002 38 87 1.6 16.1 0.00 0.00 0.00 44 1011.0
20260904200502 38 334 6.4 17.7 0.00 0.00 0.00 45 1011.2
20260904200003 38 22 11.3 17.7 0.00 0.00 0.00 44 1011.2
20260904195503 39 193 6.4 11.3 0.00 0.00 0.00 43 1011.1
20260904195002 39 315 4.8 14.5 0.00 0.00 0.00 44 1011.3
20260904194603 38 41 3.2 14.5 0.00 0.00 0.00 44 1011.6
20260904194502 39 352 4.8 14.5 0.00 0.00 0.00 45 1011.2
20260904194000 38 271 4.8 14.5 0.00 0.00 0.00 43 1011.4
20260904193726 38 233 6.4 14.5 0.00 0.00 0.00 44 1011.7
20260904193110 38 258 3.2 11.3 0.00 0.00 0.00 44 1011.8
20260904193001 38 266 3.2 12.9 0.00 0.00 0.00 44 1011.6
20260904192501 38 70 6.4 12.9 0.00 0.00 0.00 43 1011.6
20260904192001 39 44 6.4 12.9 0.00 0.00 0.00 43 1011.7
20260904191554 39 25 3.2 16.1 0.00 0.00 0.00 44 1011.9
20260904191500 39 191 4.8 17.7 0.00 0.00 0.00 44 1011.7
20260904191001 38 275 8.0 17.7 0.00 0.00 0.00 44 1011.8
20260904190500 39 243 3.2 11.3 0.00 0.00 0.00 44 1011.9
20260904190004 38 67 4.8 14.5 0.00 0.00 0.00 44 1012.1
20260904185502 38 136 6.4 14.5 0.00 0.00 0.00 45 1012.2
20260904185003 38 8 3.2 16.1 0.00 0.00 0.00 45 1012.1
20260904184559 37 190 6.4 16.1 0.00 0.00 0.00 44 1012.5
20260904184502 38 327 6.4 16.1 0.00 0.00 0.00 46 1012.2
20260904184226 38 333 6.4 11.3 0.00 0.00 0.00 46 1012.4
20260904183502 38 317 4.8 24.1 0.00 0.00 0.00 44 1012.5
20260904183120 37 288 6.4 24.1 0.00 0.00 0.00 45 1012.8
20260904183002 38 326 6.4 24.1 0.00 0.00 0.00 45 1012.6
20260904182503 38 285 3.2 14.5 0.00 0.00 0.00 45 1012.7
20260904182003 37 191 6.4 14.5 0.00 0.00 0.00 46 1012.7